Location: Rometta
(44.2000°N, 10.0500°E)
Time: 11:20:11
(UTC+00:00)

Cosmos 1818 - Pass Details

Date: 22 May 2021
Orbit: 771 x 802 km, 65.0° (Epoch: 15 June)

Event Time Altitude Azimuth Distance (km) Brightness Sun altitude
Rises 20:01:00 0° 322° (NW) 3,320 8.8 -11.3°
Reaches altitude 10° 20:03:29 10° 318° (NW) 2,385 7.6 -11.7°
Maximum altitude 20:08:51 58° 241° (WSW) 933 4.0 -12.3°
Enters shadow 20:13:27 14° 165° (SSE) 2,094 5.2 -12.9°
